Tracking 27382 objects as of 4-Jun-2023
HD Live streaming from Space Station
objects crossing your sky now

THOR ABLESTAR DEB *

Track THOR ABLESTAR DEB * now!
10-day predictions


NORAD ID: 19961
Int'l Code: 1961-015MJ
Perigee: 866.6 km
Apogee: 1,093.2 km
Inclination: 65.6 °
Period: 104.5 minutes
Semi major axis: 7350 km
RCS: 0.0125 m2 (small)
Launch date: June 29, 1961
Source: United States (US)
Launch site: AIR FORCE EASTERN TEST RANGE (AFETR)

Note: This is SATELLITE DEBRIS
Your satellite tracking list
Your tracking list is empty




NASA's NSSDC Master Catalog

Two Line Element Set (TLE):
1 19961U 61015MJ  23155.28927503  .00000235  00000-0  29218-3 0  9996
2 19961  65.6423 102.7432 0154137 153.6791 356.4506 13.77501015787715
Source of the keplerian elements: AFSPC